Content
SEND FEEDBACK

Daily
Averages
Monthly
Summary
United States of America

BELLEVILLE, MICHIGAN


Home > North America > United States > Michigan
Elevation: 780 feet     Latitude: 42 14N     Longitude: 083 32W

WEATHER
 
SELECT A DAY
Number of Records: 207,410;   Date Range: 1/1/95 - 12/17/14
 
SHARE

PRINT THIS DATA

[ ← Previous Day ]
WEATHER ALMANAC - MARCH 22, 2013
[ Next Day → ]
[ °C ]   °F
Weather ElementAverageHighLow
Temperature33 °F42.1 °F (4:53 pm)28 °F (4:53 am)
Dewpoint17.7 °F21 °F (9:53 pm)15.1 °F (4:53 am)
Humidity54.2 %69 % (11:53 pm)38 % (4:53 pm)
Barometer29.98 in30.03 in (9:53 pm)29.93 in (2:21 am)
Wind Speed10.7 mph17.3 mph (6:53 am)
Wind Gust21.9 mph (8:53 am)
Weather ElementAverage
Visibility10 mi
Wind DirectionWNW (304.6 °)

Weather ElementTotal
Precipitation---
Heating Degree Days30 (Base 65)
Averaged from 28 records on March 22, 2013
WEATHER CONDITIONS BREAKOUT
WIND DIRECTION BREAKOUT
WEATHER BY HOUR - MARCH 22, 2013
[ °C ]   °F
Local TimeTemperatureDewpointHumidityBarometerVisibilityWind DirectionWind SpeedGust SpeedPrecipitationEventsConditions
1:53 AM28.9 °F19.0 °F67 %29.95 in10.0 miWest (280°)13.8 mph0.00 inOvercast
2:21 AM28.4 °F17.6 °F64 %29.93 in10.0 miWNW (290°)13.8 mphOvercast
2:53 AM28.9 °F17.1 °F61 %29.95 in10.0 miWNW (300°)15.0 mph20.7 mphOvercast
3:53 AM28.9 °F16.0 °F58 %29.96 in10.0 miNW (320°)12.7 mphOvercast
4:53 AM28.0 °F15.1 °F58 %29.96 in10.0 miNW (310°)12.7 mphOvercast
5:53 AM28.9 °F15.1 °F56 %29.96 in10.0 miWNW (300°)11.5 mphOvercast
6:53 AM28.9 °F15.1 °F56 %29.97 in10.0 miNW (310°)17.3 mph20.7 mphOvercast
7:33 AM28.4 °F15.8 °F59 %29.97 in10.0 miNW (320°)11.5 mphOvercast
7:53 AM28.9 °F16.0 °F58 %30.00 in10.0 miWNW (300°)10.4 mphOvercast
8:53 AM30.0 °F16.0 °F56 %29.99 in10.0 miNNW (330°)16.1 mph21.9 mphOvercast
9:43 AM30.2 °F17.6 °F60 %29.97 in10.0 miWNW (300°)13.8 mphOvercast
9:53 AM30.9 °F17.1 °F57 %29.99 in10.0 miWNW (300°)10.4 mphOvercast
10:10 AM32.0 °F17.6 °F55 %29.97 in10.0 miNW (310°)8.1 mphOvercast
10:53 AM33.1 °F17.1 °F52 %29.99 in10.0 miWNW (300°)9.2 mphOvercast
11:32 AM33.8 °F17.6 °F52 %29.97 in10.0 miWNW (300°)10.4 mphOvercast
11:53 AM34.0 °F18.0 °F52 %29.99 in10.0 miWNW (300°)12.7 mphOvercast
12:53 PM36.0 °F18.0 °F48 %29.99 in10.0 miNW (310°)11.5 mphOvercast
1:53 PM37.9 °F18.0 °F45 %29.99 in10.0 miWNW (290°)9.2 mphOvercast
2:53 PM39.9 °F18.0 °F41 %29.98 in10.0 miNW (310°)11.5 mphPartly Cloudy
3:53 PM41.0 °F18.0 °F40 %29.96 in10.0 miWest (280°)6.9 mph16.1 mphClear
4:53 PM42.1 °F18.0 °F38 %29.95 in10.0 miWNW (290°)9.2 mph20.7 mphClear
5:53 PM42.1 °F19.0 °F40 %29.96 in10.0 miNW (310°)9.2 mph18.4 mphClear
6:53 PM41.0 °F19.0 °F41 %29.96 in10.0 miNW (320°)9.2 mphClear
7:53 PM36.0 °F19.0 °F50 %29.99 in10.0 miNW (320°)5.8 mphClear
8:53 PM34.0 °F19.9 °F56 %30.01 in10.0 miNW (320°)5.8 mphClear
9:53 PM32.0 °F21.0 °F64 %30.03 in10.0 miWNW (300°)8.1 mphClear
10:53 PM32.0 °F21.0 °F64 %30.03 in10.0 miWNW (290°)8.1 mphClear
11:53 PM28.9 °F19.9 °F69 %30.02 in10.0 miNW (320°)5.8 mphClear
Hourly data recorded from KYIP, located miles away from Belleville, Michigan







STORIES FROM OUR PARTNERS